星链-32954 (STARLINK-32954)

导读 | 豆包AI

STARLINK-32954是美国SpaceX星链星座的一颗卫星,于2025年4月13日发射入轨。作为星链网络的组成部分,它承担着为全球提供低延迟、高速宽带互联网服务的任务,尤其服务偏远地区、海上与航空场景。星链持续扩张星座规模,该卫星进一步完善了低轨卫星互联网的覆盖密度,支撑马斯克太空互联网组网战略推进。

基本信息
目录编号:
63567
目录名称:
STARLINK-32954
国际标识:
2025-075V
轨道中心:
EARTH
卫星名称:
星链-32954
卫星全名:
星链-32954 (STARLINK-32954)
卫星状态:
在轨 (已飞行381 天)
发射日期:
2025-04-13 UTC
国别 :
美国 (US)
星等 :
--
轨道信息
数据来源 国际轨道数据
星历时间: 2026-04-29T23:45:41+0800
5小时前
查看轨道信息
半长轴: 6861.112km
偏心率: 0.0001517
轨道倾角: 43.002°
近地点辐角 265.972°
升交点赤经 342.640°
平近点角 94.096°
近地点: 481.934km
远地点: 484.016km
周期: 94.265分钟
每日圈数: 15.276049
详细信息
固有亮度:
5
最大亮度:
2.5
卫星平台:
Starlink V1.0
覆盖范围:
全球
运营商:
太空探索技术公司
运营商所在国:
美国
制造商(研发单位):
太空探索技术公司
制造商所在国:
美国
使用方式:
暂无
卫星简介
Starlink 计划是 SpaceX 推出的全球卫星互联网项目,通过发射低轨道卫星,为全球尤其是偏远地区提供高速、低延迟的互联网服务。自 2019 年起,Starlink 已部署数千颗卫星,旨在缩小全球数字鸿沟,推动互联网普及。该项目还为军事、航空等行业提供通信支持,带来广泛经济效益。
2D轨道图
3D轨道图
轨道高度分析图
轨道倾角分析图
轨道综合分析图
查看轨道综合分析图